TimeCST,TemperatureF,Dew PointF,Humidity,Sea Level PressureIn,VisibilityMPH,Wind Direction,Wind SpeedMPH,Gust SpeedMPH,PrecipitationIn,Events,Conditions,WindDirDegrees,DateUTC
12:52 AM,28.0,16.0,61,30.31,10.0,West,4.6,-,N/A,,Clear,270,2012-11-28 06:52:00
1:52 AM,26.1,16.0,66,30.33,10.0,West,3.5,-,N/A,,Clear,260,2012-11-28 07:52:00
2:52 AM,24.1,15.1,69,30.34,10.0,Calm,Calm,-,N/A,,Clear,0,2012-11-28 08:52:00
3:52 AM,24.1,15.1,69,30.35,10.0,SW,3.5,-,N/A,,Clear,230,2012-11-28 09:52:00
4:52 AM,21.9,15.1,75,30.37,10.0,Calm,Calm,-,N/A,,Clear,0,2012-11-28 10:52:00
5:52 AM,23.0,16.0,74,30.39,10.0,Calm,Calm,-,N/A,,Clear,0,2012-11-28 11:52:00
6:52 AM,21.9,16.0,78,30.40,10.0,Calm,Calm,-,N/A,,Clear,0,2012-11-28 12:52:00
7:52 AM,21.0,17.1,85,30.42,10.0,West,4.6,-,N/A,,Clear,260,2012-11-28 13:52:00
8:52 AM,28.0,19.9,72,30.43,10.0,Calm,Calm,-,N/A,,Clear,0,2012-11-28 14:52:00
9:52 AM,30.9,23.0,72,30.44,10.0,South,4.6,-,N/A,,Clear,170,2012-11-28 15:52:00
10:52 AM,36.0,24.1,62,30.45,10.0,SW,4.6,-,N/A,,Clear,220,2012-11-28 16:52:00
11:52 AM,39.9,26.1,58,30.41,10.0,Variable,4.6,-,N/A,,Clear,0,2012-11-28 17:52:00
12:52 PM,43.0,24.1,47,30.38,10.0,SSW,4.6,-,N/A,,Clear,210,2012-11-28 18:52:00
1:52 PM,45.0,21.9,40,30.35,10.0,SSW,8.1,-,N/A,,Clear,210,2012-11-28 19:52:00
2:52 PM,46.0,21.0,37,30.33,10.0,Variable,5.8,-,N/A,,Clear,0,2012-11-28 20:52:00
3:52 PM,45.0,19.9,37,30.32,10.0,South,6.9,-,N/A,,Clear,180,2012-11-28 21:52:00
4:52 PM,37.0,19.0,48,30.31,10.0,Calm,Calm,-,N/A,,Clear,0,2012-11-28 22:52:00
5:52 PM,33.1,19.9,59,30.30,10.0,Calm,Calm,-,N/A,,Clear,0,2012-11-28 23:52:00
6:52 PM,33.1,21.0,61,30.30,10.0,South,5.8,-,N/A,,Clear,170,2012-11-29 00:52:00
7:52 PM,33.1,23.0,66,30.29,10.0,South,6.9,-,N/A,,Clear,170,2012-11-29 01:52:00
8:52 PM,33.1,23.0,66,30.27,10.0,ESE,3.5,-,N/A,,Clear,120,2012-11-29 02:52:00
9:52 PM,30.9,23.0,72,30.26,10.0,Calm,Calm,-,N/A,,Clear,0,2012-11-29 03:52:00
10:52 PM,28.0,21.9,78,30.25,10.0,Calm,Calm,-,N/A,,Clear,0,2012-11-29 04:52:00
11:52 PM,27.0,21.9,81,30.25,10.0,Calm,Calm,-,N/A,,Clear,0,2012-11-29 05:52:00